Weather reports worldwide

Advertisment
Baltasound, United Kingdom (3002): temperature & dewpoint: 20.05.2019 01:00:00 - 26.05.2019 01:00:00 (BST)Baltasound, United Kingdom (3002): temperature -20cm: 20.05.2019 01:00:00 - 26.05.2019 01:00:00 (BST)Baltasound, United Kingdom (3002): wind speed: 20.05.2019 01:00:00 - 26.05.2019 01:00:00 (BST)Baltasound, United Kingdom (3002): wind direction: 20.05.2019 01:00:00 - 26.05.2019 01:00:00 (BST)Baltasound, United Kingdom (3002): reduced air pressure: 20.05.2019 01:00:00 - 26.05.2019 01:00:00 (BST)Baltasound, United Kingdom (3002): visibility: 20.05.2019 01:00:00 - 26.05.2019 01:00:00 (BST)Baltasound, United Kingdom (3002): precipitation: 20.05.2019 01:00:00 - 26.05.2019 01:00:00 (BST)
Date & Time tt [°C] td [°C] tt -20cm [°C] ff [km/h] ff [kn] dd ppp [hPa] vv [km] rr [mm]
26.05.2019 01:00:00 - - - - - - - - -
26.05.2019 00:00:00 5,4 2,5 - 15 8 NNW 1010,6 50 0,0
25.05.2019 23:00:00 5,6 2,6 - 15 8 NW 1010,8 45 0,0
25.05.2019 22:00:00 6,0 2,4 - 16 9 NNW 1010,9 50 0,0
25.05.2019 21:00:00 6,7 2,4 - 16 9 NNW 1010,8 50 0,0
25.05.2019 20:00:00 8,0 3,3 - 22 12 NNW 1011,0 30 0,0
25.05.2019 19:00:00 7,9 2,8 - 22 12 NNW 1011,1 50 0,0
25.05.2019 18:00:00 7,4 4,0 - 22 12 NNW 1011,5 8 0,0
25.05.2019 17:00:00 9,2 3,8 - 24 13 NW 1011,4 29 0,0
25.05.2019 16:00:00 9,0 4,0 - 24 13 NW 1011,8 45 0,0
25.05.2019 15:00:00 9,1 3,9 - 22 12 NW 1012,0 40 0,0
25.05.2019 14:00:00 9,3 4,8 - 22 12 NW 1012,2 40 0,0
25.05.2019 13:00:00 7,7 5,9 - 26 14 NNW 1012,4 23 0,0
25.05.2019 12:00:00 9,2 8,1 - 18 10 NW 1012,3 35 0,0
25.05.2019 11:00:00 7,4 6,5 - 22 12 N 1012,6 7 0,4
25.05.2019 10:00:00 7,9 7,2 11,2 15 8 N 1012,7 2,5 1,4
25.05.2019 09:00:00 8,6 7,0 - 8 4 ENE 1012,5 10 0,0
25.05.2019 08:00:00 9,0 7,1 - 9 5 ENE 1012,5 18 0,0
25.05.2019 07:00:00 8,4 7,3 - 11 6 NNE 1012,6 11 0,0
25.05.2019 06:00:00 8,5 7,8 - 11 6 NE 1012,6 12 0,0
25.05.2019 05:00:00 8,5 8,0 - 16 9 NNE 1012,6 5 0,2
25.05.2019 04:00:00 8,7 8,4 - 18 10 NNE 1012,8 11 0,0
25.05.2019 03:00:00 9,0 8,3 - 13 7 N 1012,3 9 0,0
25.05.2019 02:00:00 9,2 8,6 - 11 6 N 1012,5 28 0,0
25.05.2019 01:00:00 9,0 8,5 - 11 6 N 1012,4 15 0,0
25.05.2019 00:00:00 9,1 8,7 - 8 4 N 1012,6 23 0,0
24.05.2019 23:00:00 9,1 8,6 - 9 5 W 1012,3 3,5 0,0
24.05.2019 22:00:00 9,3 8,4 - 16 9 W 1012,2 40 0,0
24.05.2019 21:00:00 9,5 8,4 - 16 9 W 1012,0 24 0,0
24.05.2019 20:00:00 9,8 8,1 - 21 11 W 1012,2 17 0,0
24.05.2019 19:00:00 9,8 7,7 - 21 11 WNW 1012,2 35 0,0
24.05.2019 18:00:00 10,5 8,3 - 24 13 WNW 1012,2 21 0,0
24.05.2019 17:00:00 11,1 8,3 - 21 11 WNW 1012,2 30 0,0
24.05.2019 16:00:00 12,4 8,2 - 18 10 W 1012,3 40 0,0
24.05.2019 15:00:00 12,1 8,5 - 22 12 WNW 1012,1 30 0,0
24.05.2019 14:00:00 12,1 8,3 - 21 11 W 1011,9 30 0,0
24.05.2019 13:00:00 12,3 7,1 - 18 10 WNW 1011,6 30 0,0
24.05.2019 12:00:00 12,9 8,2 - 16 9 WNW 1011,3 35 0,0
24.05.2019 11:00:00 11,9 7,9 - 16 9 WNW 1011,1 40 0,0
24.05.2019 10:00:00 11,3 7,4 10,7 15 8 WNW 1010,8 45 0,0
24.05.2019 09:00:00 11,7 7,8 - 13 7 NNW 1010,2 50 0,0
24.05.2019 08:00:00 11,4 8,2 - 15 8 NW 1009,9 45 0,0
24.05.2019 07:00:00 11,2 9,0 - 15 8 NW 1009,6 40 0,0
24.05.2019 06:00:00 10,1 9,4 - 13 7 NNW 1009,1 35 0,0
24.05.2019 05:00:00 7,6 7,3 - 9 5 WNW 1008,9 21 0,0
24.05.2019 04:00:00 6,4 5,7 - 9 5 NW 1008,6 20 0,0
24.05.2019 03:00:00 7,9 7,0 - 13 7 N 1008,1 18 0,0
24.05.2019 02:00:00 5,7 5,1 - 4 2 WNW 1007,5 20 0,0
24.05.2019 01:00:00 7,5 6,9 - 9 5 N 1007,2 24 0,0
24.05.2019 00:00:00 6,7 6,2 - 8 4 NNE 1006,8 17 0,0
23.05.2019 23:00:00 6,5 5,3 - 5 3 NNE 1006,4 14 0,0
23.05.2019 22:00:00 8,1 6,8 - 8 4 NNE 1006,2 20 0,0
23.05.2019 21:00:00 9,6 7,3 - 13 7 NNE 1005,5 30 0,0
23.05.2019 20:00:00 10,4 8,0 - 13 7 NE 1004,9 30 0,0
23.05.2019 19:00:00 10,1 8,0 - 13 7 NE 1004,4 30 0,0
23.05.2019 18:00:00 10,7 7,5 - 13 7 ENE 1003,7 45 0,0
23.05.2019 17:00:00 10,8 7,6 - 13 7 ENE 1003,2 35 0,0
23.05.2019 16:00:00 11,9 9,4 - 16 9 E 1002,9 25 0,0
23.05.2019 15:00:00 12,1 9,6 - 16 9 ESE 1002,6 27 0,0
23.05.2019 14:00:00 11,8 9,4 - 16 9 ESE 1002,3 35 0,0
23.05.2019 13:00:00 10,9 9,5 - 9 5 E 1002,2 35 0,0
23.05.2019 12:00:00 10,2 9,4 - 15 8 ESE 1002,1 40 0,0
23.05.2019 11:00:00 9,7 9,2 - 11 6 ESE 1002,1 28 0,6
23.05.2019 10:00:00 9,7 9,1 10,2 9 5 ESE 1002,0 10 0,4
23.05.2019 09:00:00 9,7 9,2 - 4 2 W 1002,3 17 0,6
23.05.2019 08:00:00 9,4 9,1 - 5 3 WSW 1002,6 10 1,0
23.05.2019 07:00:00 9,2 9,0 - 5 3 SW 1002,7 10 0,2
23.05.2019 06:00:00 9,1 8,9 - 5 3 S 1002,9 17 0,0
23.05.2019 05:00:00 8,9 8,8 - 4 2 SW 1003,5 23 0,2
23.05.2019 04:00:00 9,0 8,8 - 2 1 W 1004,2 2,2 0,0
23.05.2019 03:00:00 8,9 8,7 - 4 2 W 1004,4 10 0,0
23.05.2019 02:00:00 9,0 8,8 - 5 3 WNW 1004,9 7 0,0
23.05.2019 01:00:00 8,8 8,6 - 5 3 WNW 1005,1 28 0,0
23.05.2019 00:00:00 8,9 8,7 - 8 4 W 1005,6 10 0,0
22.05.2019 23:00:00 9,0 8,7 - 5 3 WNW 1006,0 11 0,0
22.05.2019 22:00:00 9,1 8,7 - 4 2 N 1006,6 4,7 0,0
22.05.2019 21:00:00 9,3 8,8 - 11 6 N 1006,4 12 0,0
22.05.2019 20:00:00 9,2 8,7 - 13 7 N 1006,9 11 0,0
22.05.2019 19:00:00 9,3 8,7 - 13 7 N 1007,5 27 0,0
22.05.2019 18:00:00 9,4 8,8 - 18 10 N 1007,6 10 0,0
22.05.2019 17:00:00 9,3 8,7 - 18 10 N 1008,1 16 0,0
22.05.2019 16:00:00 9,3 8,7 - 18 10 N 1008,5 25 0,2
22.05.2019 15:00:00 9,4 9,0 - 21 11 N 1009,0 6 0,2
22.05.2019 14:00:00 9,3 9,0 - 21 11 NNE 1009,4 4,5 0,2
22.05.2019 13:00:00 9,1 8,5 - 24 13 NNE 1009,8 16 0,0
22.05.2019 12:00:00 9,3 8,8 - 24 13 NNE 1010,0 9 0,4
22.05.2019 11:00:00 9,1 8,7 - 24 13 NNE 1009,9 8 2,0
22.05.2019 10:00:00 9,0 8,6 10,7 24 13 NNE 1010,2 9 3,4
22.05.2019 09:00:00 8,9 8,5 - 28 15 N 1010,3 8 0,8
22.05.2019 08:00:00 8,9 8,5 - 28 15 NNE 1010,6 6 3,0
22.05.2019 07:00:00 9,0 8,6 - 22 12 NNE 1010,8 9 0,4
22.05.2019 06:00:00 9,1 8,7 - 24 13 NNE 1010,9 9 0,8
22.05.2019 05:00:00 9,2 8,7 - 16 9 N 1011,4 6 0,4
22.05.2019 04:00:00 9,2 8,8 - 18 10 N 1011,8 13 0,2
22.05.2019 03:00:00 9,2 8,8 - 26 14 N 1012,1 17 0,0
22.05.2019 02:00:00 8,9 8,7 - 15 8 NNW 1012,7 7 0,0
22.05.2019 01:00:00 8,8 8,5 - 8 4 NW 1013,0 1,1 0,0
22.05.2019 00:00:00 9,1 8,6 - 16 9 NNW 1013,6 8 0,0
21.05.2019 23:00:00 9,1 8,7 - 16 9 NW 1014,1 10 0,0
21.05.2019 22:00:00 9,0 8,6 - 18 10 NW 1014,4 7 0,0
21.05.2019 21:00:00 9,0 8,4 - 21 11 NW 1014,7 25 0,0
21.05.2019 20:00:00 9,1 8,3 - 22 12 NW 1014,8 19 0,0
21.05.2019 19:00:00 9,2 8,3 - 21 11 NNW 1015,0 50 0,0
21.05.2019 18:00:00 9,3 8,5 - 24 13 NNW 1015,0 20 0,0
21.05.2019 17:00:00 9,4 7,9 - 24 13 NNW 1015,1 40 0,0
21.05.2019 16:00:00 9,6 8,0 - 22 12 NNW 1015,3 50 0,0
21.05.2019 15:00:00 9,7 8,1 - 24 13 NNW 1015,5 45 0,0
21.05.2019 14:00:00 9,6 8,1 - 22 12 NNW 1015,7 40 0,0
21.05.2019 13:00:00 10,4 8,7 - 21 11 NNW 1015,5 18 0,0
21.05.2019 12:00:00 10,6 8,4 - 22 12 NNW 1015,5 24 0,0
21.05.2019 11:00:00 10,4 8,0 - 22 12 N 1015,6 25 0,0
21.05.2019 10:00:00 10,4 8,2 10,7 18 10 NNW 1015,8 26 0,0
21.05.2019 09:00:00 9,8 8,0 - 16 9 NNW 1015,8 19 0,0
21.05.2019 08:00:00 9,6 8,1 - 18 10 N 1015,4 19 0,0
21.05.2019 07:00:00 9,9 8,3 - 13 7 N 1015,2 21 0,0
21.05.2019 06:00:00 9,3 8,1 - 8 4 N 1015,4 20 0,0
21.05.2019 05:00:00 9,1 8,4 - 8 4 N 1015,7 15 0,0
21.05.2019 04:00:00 7,9 7,6 - 5 3 NNW 1015,4 5 0,0
21.05.2019 03:00:00 6,5 5,9 - 5 3 W 1015,5 12 0,0
21.05.2019 02:00:00 6,5 5,3 - 5 3 WSW 1015,7 21 0,0
21.05.2019 01:00:00 6,9 5,6 - 5 3 W 1015,6 28 0,0
21.05.2019 00:00:00 7,2 5,6 - 8 4 WNW 1015,6 15 0,0
20.05.2019 23:00:00 9,6 7,9 - 8 4 WNW 1015,4 14 0,0
20.05.2019 22:00:00 10,7 9,0 - 8 4 NW 1015,4 20 0,0
20.05.2019 21:00:00 11,3 9,0 - 11 6 NW 1015,3 18 0,0
20.05.2019 20:00:00 11,4 8,8 - 11 6 WNW 1015,2 24 0,0
20.05.2019 19:00:00 12,3 6,7 - 4 2 NNE 1014,9 35 0,0
20.05.2019 18:00:00 12,1 6,9 - 5 3 ESE 1014,6 45 0,0
20.05.2019 17:00:00 12,5 6,6 - 8 4 ENE 1014,7 50 0,0
20.05.2019 16:00:00 12,5 7,8 - 9 5 ESE 1014,6 40 0,0
20.05.2019 15:00:00 12,3 8,2 - 11 6 E 1014,3 30 0,0
20.05.2019 14:00:00 13,7 6,6 - 8 4 NW 1014,1 30 0,0
20.05.2019 13:00:00 13,6 6,9 - 5 3 WSW 1014,0 40 0,0
20.05.2019 12:00:00 12,7 6,8 - 11 6 SSE 1014,0 40 0,0
20.05.2019 11:00:00 13,1 7,1 - 9 5 SE 1013,9 19 0,0
20.05.2019 10:00:00 11,9 8,5 10,2 11 6 SSE 1013,7 30 0,0
20.05.2019 09:00:00 10,9 9,3 - 9 5 SSE 1013,5 21 0,0
20.05.2019 08:00:00 10,5 9,9 - 8 4 SSE 1013,2 15 0,0
20.05.2019 07:00:00 10,0 9,9 - 8 4 SSE 1012,8 9 0,0
20.05.2019 06:00:00 9,7 9,7 - 4 2 W 1012,5 7 0,0
20.05.2019 05:00:00 9,5 9,5 - 4 2 WSW 1012,3 4,7 0,0
20.05.2019 04:00:00 9,4 9,4 - 5 3 ESE 1012,3 0,4 0,0
20.05.2019 03:00:00 9,4 9,4 - 13 7 S 1012,2 0,2 0,0
20.05.2019 02:00:00 9,6 9,6 - 11 6 SSE 1012,3 0,4 0,0
20.05.2019 01:00:00 9,8 9,7 - 8 4 SE 1012,4 0,2 0,0

tt = temperature
td = dewpoint
tt -20cm = temperature -20cm
ff = wind speed
dd = wind direction
ppp = reduced air pressure
vv = visibility
rr = precipitation

Next stations